Russell, KS

9:03 PM CST on January 20, 2017 (GMT -0600)
Russell Municipal

Weather History for KRSL - January, 2012

Change the Weather History Date:

Friday, January 13, 2012

  Actual Average Record
Temperature  
Mean Temperature 28 °F -  
Max Temperature 45 °F 41 °F 67 °F (1980)
Min Temperature 12 °F 14 °F -11 °F (1982)
Degree Days  
Heating Degree Days 36    
Moisture  
Dew Point 15 °F    
Average Humidity 59    
Maximum Humidity 75    
Minimum Humidity 31    
Precipitation  
Precipitation 0.00 in - - ()
Sea Level Pressure  
Sea Level Pressure 30.10 in    
Wind  
Wind Speed 7 mph (WSW)    
Max Wind Speed 13 mph    
Max Gust Speed -    
Visibility 10 miles    
Events      
Averages and records for this station are not official NWS values.
T = Trace of Precipitation, MM = Missing Value Source: NWS Daily Summary

Daily Weather History Graph

Daily Weather History Graph

Search for Another Location

Airport or City:

Trip Planner

Search our weather history database for the weather conditions in past years. The results will help you decide how hot, cold, wet, or windy it might be!

Date:

Astronomy

Jan. 13, 2012 Rise Set
Actual Time 7:53 AM CST 5:34 PM CST
Civil Twilight 7:23 AM CST 6:04 PM CST
Nautical Twilight 6:50 AM CST 6:37 PM CST
Astronomical Twilight 6:18 AM CST 7:09 PM CST
Moon 10:46 PM CST (1/13) 10:11 AM CST (1/13)
Length of Visible Light 10h 40m
Length of Day
9h 41m
Waning Gibbous, 78% of the Moon is Illuminated
Jan 13
Waning Gibbous
Jan 16
Last Quarter
Jan 23
New
Jan 30
First Quarter
Feb 7
Full

Hourly Weather History & Observations

Time (CST) Temp. Windchill Dew Point Humidity Pressure Visibility Wind Dir Wind Speed Gust Speed Precip Events Conditions
12:53 AM 12.0 °F 2.7 °F 3.9 °F 70% 30.16 in 10.0 mi WSW 5.8 mph - N/A   Clear
1:53 AM 12.9 °F 5.2 °F 6.1 °F 74% 30.15 in 10.0 mi WSW 4.6 mph - N/A   Clear
2:53 AM 15.1 °F 5.2 °F 7.0 °F 70% 30.14 in 10.0 mi WSW 6.9 mph - N/A   Clear
3:53 AM 15.1 °F 4.2 °F 8.1 °F 74% 30.13 in 10.0 mi WSW 8.1 mph - N/A   Clear
4:53 AM 16.0 °F 4.4 °F 9.0 °F 74% 30.14 in 10.0 mi West 9.2 mph - N/A   Partly Cloudy
5:53 AM 19.9 °F 12.1 °F 10.9 °F 68% 30.14 in 10.0 mi West 5.8 mph - N/A   Overcast
6:53 AM 21.0 °F 13.4 °F 12.9 °F 71% 30.15 in 10.0 mi WSW 5.8 mph - N/A   Overcast
7:53 AM 21.9 °F 13.4 °F 15.1 °F 75% 30.15 in 10.0 mi SW 6.9 mph - N/A   Overcast
8:53 AM 24.1 °F 18.2 °F 17.1 °F 75% 30.16 in 10.0 mi WSW 4.6 mph - N/A   Overcast
9:53 AM 27.0 °F 18.0 °F 19.0 °F 72% 30.17 in 10.0 mi WSW 9.2 mph - N/A   Mostly Cloudy
10:53 AM 35.1 °F 31.0 °F 21.9 °F 59% 30.15 in 10.0 mi WSW 4.6 mph - N/A   Clear
11:53 AM 39.0 °F - 19.9 °F 46% 30.12 in 10.0 mi Calm Calm - N/A   Clear
1:53 PM 43.0 °F 36.4 °F 18.0 °F 37% 30.07 in 10.0 mi West 12.7 mph - N/A   Clear
2:53 PM 44.1 °F 37.7 °F 17.1 °F 34% 30.06 in 10.0 mi WSW 12.7 mph - N/A   Clear
3:53 PM 45.0 °F 38.9 °F 16.0 °F 31% 30.06 in 10.0 mi WSW 12.7 mph - N/A   Clear
4:53 PM 42.1 °F 36.6 °F 16.0 °F 35% 30.07 in 10.0 mi West 9.2 mph - N/A   Clear
5:53 PM 34.0 °F 28.0 °F 15.1 °F 46% 30.06 in 10.0 mi WSW 6.9 mph - N/A   Clear
6:53 PM 28.9 °F 21.1 °F 15.1 °F 56% 30.06 in 10.0 mi SSW 8.1 mph - N/A   Clear
7:53 PM 30.9 °F 22.8 °F 16.0 °F 54% 30.04 in 10.0 mi SW 9.2 mph - N/A   Clear
8:53 PM 30.0 °F 21.1 °F 16.0 °F 56% 30.04 in 10.0 mi SW 10.4 mph - N/A   Clear
9:53 PM 30.0 °F 20.5 °F 17.1 °F 59% 30.02 in 10.0 mi SW 11.5 mph - N/A   Clear
10:53 PM 32.0 °F 22.5 °F 19.0 °F 59% 30.01 in 10.0 mi WSW 12.7 mph - N/A   Clear
11:53 PM 30.9 °F 22.2 °F 19.9 °F 64% 30.02 in 10.0 mi West 10.4 mph - N/A   Clear